This is the latest recevied weather packets stored in our database for station/object DC4XK-10. If no packets are shown the sender has not sent any weather packets the latest 10 day(s).
| Time | Temp. | Humidity | Pressure | Rain* | Wind** | Luminosity | Snow |
|---|---|---|---|---|---|---|---|
| 1777534731 | 12.78° C | 60% | 1031.4 hPa | 0 mm | 0 m/s | - | - |
| 1777534131 | 12.22° C | 60% | 1031.4 hPa | 0 mm | 0 m/s | - | - |
| 1777533530 | 11.67° C | 59% | 1031.6 hPa | 0 mm | 0 m/s | - | - |
| 1777532931 | 11.11° C | 64% | 1031.4 hPa | 0 mm | 0 m/s | - | - |
| 1777532331 | 10.56° C | 65% | 1031.5 hPa | 0 mm | 0 m/s | - | - |
| 1777531730 | 10° C | 68% | 1031.5 hPa | 0 mm | 0 m/s | - | - |
| 1777531132 | 9.44° C | 70% | 1031.4 hPa | 0 mm | 0 m/s | - | - |
| 1777530531 | 8.89° C | 81% | 1031.4 hPa | 0 mm | 0 m/s | - | - |
| 1777529931 | 8.89° C | 86% | 1031.3 hPa | 0 mm | 0 m/s | - | - |
| 1777529333 | 7.78° C | 92% | 1031.4 hPa | 0 mm | 0 m/s | - | - |
| 1777528731 | 8.33° C | 94% | 1031.4 hPa | 0 mm | 0 m/s | - | - |
| 1777528131 | 6.67° C | 96% | 1031.4 hPa | 0 mm | 0 m/s | - | - |
| 1777527533 | 6.11° C | 96% | 1031.2 hPa | 0 mm | 0 m/s | - | - |
| 1777526931 | 6.11° C | 96% | 1031.3 hPa | 0 mm | 0 m/s | - | - |
| 1777526331 | 6.11° C | 97% | 1031.3 hPa | 0 mm | 0 m/s | - | - |
| 1777525731 | 5.56° C | 97% | 1031.4 hPa | 0 mm | 0 m/s | - | - |
| 1777525131 | 5° C | 97% | 1031.1 hPa | 0 mm | 0 m/s | - | - |
| 1777524531 | 4.44° C | 97% | 1031.1 hPa | 0 mm | 0 m/s | - | - |
| 1777523931 | 3.89° C | 96% | 1031.1 hPa | 0 mm | 0 m/s | - | - |
| 1777523331 | 2.22° C | 96% | 1031.2 hPa | 0 mm | 0 m/s | - | - |
| 1777522731 | 2.78° C | 96% | 1031.1 hPa | 0 mm | 0 m/s | - | - |
| 1777522131 | 2.22° C | 94% | 1031 hPa | 0 mm | 0 m/s | - | - |
| 1777521531 | 1.67° C | 93% | 1031 hPa | 0 mm | 0 m/s | - | - |
| 1777520931 | 2.22° C | 91% | 1031 hPa | 0 mm | 0 m/s | - | - |
| 1777520331 | 2.22° C | 90% | 1030.9 hPa | 0 mm | 0 m/s | - | - |
* Rain latest hour (hover to see other rain measurements)
** Current wind speed in m/s (hover to see current wind gust speed)